Year,Month,Day,Hour,Minute,Value (Times are PST for temperature in C)
2012,09,20,10,20,15.10
2012,09,20,10,21,15.20
2012,09,20,10,22,15.30
2012,09,20,10,23,15.50
2012,09,20,10,24,15.70
2012,09,20,10,25,15.80
2012,09,20,10,26,16.00
2012,09,20,10,27,16.10
2012,09,20,10,28,16.10
2012,09,20,10,29,16.00
2012,09,20,10,30,15.90
2012,09,20,10,31,15.80
2012,09,20,10,32,15.60
2012,09,20,10,33,15.40
2012,09,20,10,34,15.30
2012,09,20,10,35,15.20
2012,09,20,10,36,15.00
2012,09,20,10,37,14.90
2012,09,20,10,38,14.70
2012,09,20,10,39,14.50
2012,09,20,10,40,14.30
2012,09,20,10,41,14.20
2012,09,20,10,42,14.10
2012,09,20,10,43,14.10
2012,09,20,10,44,14.20
2012,09,20,10,45,14.20
2012,09,20,10,46,14.30
2012,09,20,10,47,14.40
2012,09,20,10,48,14.50
2012,09,20,10,49,14.60
2012,09,20,10,50,14.70
2012,09,20,10,51,14.80
2012,09,20,10,52,14.90
2012,09,20,10,53,14.90
2012,09,20,10,54,15.00
2012,09,20,10,55,15.10
2012,09,20,10,56,15.20
2012,09,20,10,57,15.20
2012,09,20,10,58,15.30
2012,09,20,10,59,15.30
2012,09,20,11,00,15.50
2012,09,20,11,01,15.60
2012,09,20,11,02,15.70
2012,09,20,11,03,15.90
2012,09,20,11,04,15.90
2012,09,20,11,05,16.10
2012,09,20,11,06,16.10
2012,09,20,11,07,16.20
2012,09,20,11,08,16.20
2012,09,20,11,09,16.30
2012,09,20,11,10,16.30
2012,09,20,11,11,16.30
2012,09,20,11,12,16.30
2012,09,20,11,13,16.40
2012,09,20,11,14,16.40
2012,09,20,11,15,16.40
2012,09,20,11,16,16.40
2012,09,20,11,17,16.40
2012,09,20,11,18,16.40
2012,09,20,11,19,16.40
2012,09,20,11,20,16.60
2012,09,20,11,21,16.60
2012,09,20,11,22,16.70
2012,09,20,11,23,16.80
2012,09,20,11,24,16.90
2012,09,20,11,25,16.90
2012,09,20,11,26,17.00
2012,09,20,11,27,17.00
2012,09,20,11,28,17.00
2012,09,20,11,29,17.00
2012,09,20,11,30,17.00
2012,09,20,11,31,17.00
2012,09,20,11,32,17.00
2012,09,20,11,33,17.00
2012,09,20,11,34,17.00
2012,09,20,11,35,17.00
2012,09,20,11,36,17.00
2012,09,20,11,37,17.10
2012,09,20,11,38,17.10
2012,09,20,11,39,17.20
2012,09,20,11,40,17.20
2012,09,20,11,41,17.20
2012,09,20,11,42,17.30
2012,09,20,11,43,17.30
2012,09,20,11,44,17.30
2012,09,20,11,45,17.30
2012,09,20,11,46,17.40
2012,09,20,11,47,17.40
2012,09,20,11,48,17.50
2012,09,20,11,49,17.50
2012,09,20,11,50,17.60
2012,09,20,11,51,17.60
2012,09,20,11,52,17.60
2012,09,20,11,53,17.70
2012,09,20,11,54,17.70
2012,09,20,11,55,17.70
2012,09,20,11,56,17.60
2012,09,20,11,57,17.60
2012,09,20,11,58,17.70
2012,09,20,11,59,17.60
2012,09,20,12,00,17.60
2012,09,20,12,01,17.50
2012,09,20,12,02,17.60
2012,09,20,12,03,17.70
2012,09,20,12,04,17.80
2012,09,20,12,05,17.90
2012,09,20,12,06,17.90
2012,09,20,12,07,17.90
2012,09,20,12,08,17.90
2012,09,20,12,09,17.90
2012,09,20,12,10,17.90
2012,09,20,12,11,17.90
2012,09,20,12,12,17.90
2012,09,20,12,13,17.90
2012,09,20,12,14,17.90
2012,09,20,12,15,17.80
2012,09,20,12,16,17.80
2012,09,20,12,17,17.70
2012,09,20,12,18,17.70
2012,09,20,12,19,17.50
2012,09,20,12,20,17.50
2012,09,20,12,21,17.40
2012,09,20,12,22,17.30
2012,09,20,12,23,17.20
2012,09,20,12,24,17.10
2012,09,20,12,25,17.00
2012,09,20,12,26,16.90
2012,09,20,12,27,16.70
2012,09,20,12,28,16.70
2012,09,20,12,29,16.70
2012,09,20,12,30,16.60
2012,09,20,12,31,16.50
2012,09,20,12,32,16.40
2012,09,20,12,33,16.40
2012,09,20,12,34,16.50
2012,09,20,12,35,16.60
2012,09,20,12,36,16.70
2012,09,20,12,37,16.90
2012,09,20,12,38,17.10
2012,09,20,12,39,17.30
2012,09,20,12,40,17.40
2012,09,20,12,41,17.60
2012,09,20,12,42,17.60
2012,09,20,12,43,17.70
2012,09,20,12,44,17.70
2012,09,20,12,45,17.60
2012,09,20,12,46,17.50
2012,09,20,12,47,17.50
2012,09,20,12,48,17.50
2012,09,20,12,49,17.70
2012,09,20,12,50,17.80
2012,09,20,12,51,17.90
2012,09,20,12,52,17.90
2012,09,20,12,53,18.10
2012,09,20,12,54,18.20
2012,09,20,12,55,18.40
2012,09,20,12,56,18.50
2012,09,20,12,57,18.70
2012,09,20,12,58,18.80
2012,09,20,12,59,18.90
2012,09,20,13,00,19.00
2012,09,20,13,01,19.20
2012,09,20,13,02,19.40
2012,09,20,13,03,19.50
2012,09,20,13,04,19.60
2012,09,20,13,05,19.60
2012,09,20,13,06,19.60
2012,09,20,13,07,19.60
2012,09,20,13,08,19.70
2012,09,20,13,09,19.90
2012,09,20,13,10,19.90
2012,09,20,13,11,20.00
2012,09,20,13,12,20.10
2012,09,20,13,13,20.10
2012,09,20,13,14,20.10
2012,09,20,13,15,20.00
2012,09,20,13,16,19.90
2012,09,20,13,17,19.90
2012,09,20,13,18,19.90
2012,09,20,13,19,19.90
2012,09,20,13,20,19.90
2012,09,20,13,21,19.90
2012,09,20,13,22,19.80
2012,09,20,13,23,19.70
2012,09,20,13,24,19.70
2012,09,20,13,25,19.70
2012,09,20,13,26,19.60
2012,09,20,13,27,19.70
2012,09,20,13,28,19.70
2012,09,20,13,29,19.80
2012,09,20,13,30,19.80
2012,09,20,13,31,19.90
2012,09,20,13,32,20.00
2012,09,20,13,33,20.10
2012,09,20,13,34,20.20
2012,09,20,13,35,20.20
2012,09,20,13,36,20.20
2012,09,20,13,37,20.20
2012,09,20,13,38,20.30
2012,09,20,13,39,20.30
2012,09,20,13,40,20.30
2012,09,20,13,41,20.30
2012,09,20,13,42,20.20
2012,09,20,13,43,20.20
2012,09,20,13,44,20.10
2012,09,20,13,45,19.90
2012,09,20,13,46,19.90
2012,09,20,13,47,19.90
2012,09,20,13,48,19.80
2012,09,20,13,49,19.70
2012,09,20,13,50,19.70
2012,09,20,13,51,19.70
2012,09,20,13,52,19.60
2012,09,20,13,53,19.40
2012,09,20,13,54,19.20
2012,09,20,13,55,19.00
2012,09,20,13,56,18.90
2012,09,20,13,57,18.70
2012,09,20,13,58,18.60
2012,09,20,13,59,18.60
2012,09,20,14,00,18.60
2012,09,20,14,01,18.60
2012,09,20,14,02,18.50
2012,09,20,14,03,18.60
2012,09,20,14,04,18.70
2012,09,20,14,05,19.00
2012,09,20,14,06,19.10
2012,09,20,14,07,19.30
2012,09,20,14,08,19.40
2012,09,20,14,09,19.60
2012,09,20,14,10,19.70
2012,09,20,14,11,19.90
2012,09,20,14,12,20.00
2012,09,20,14,13,20.10
2012,09,20,14,14,20.10
2012,09,20,14,15,20.00
2012,09,20,14,16,19.90
2012,09,20,14,17,19.90
2012,09,20,14,18,20.00
2012,09,20,14,19,20.10
2012,09,20,14,20,20.20
2012,09,20,14,21,20.20
2012,09,20,14,22,20.20
2012,09,20,14,23,20.20
2012,09,20,14,24,20.30
2012,09,20,14,25,20.20
2012,09,20,14,26,20.20
2012,09,20,14,27,20.20
2012,09,20,14,28,20.20
2012,09,20,14,29,20.30
2012,09,20,14,30,20.40
2012,09,20,14,31,20.40
2012,09,20,14,32,20.40
2012,09,20,14,33,20.40
2012,09,20,14,34,20.40
2012,09,20,14,35,20.50
2012,09,20,14,36,20.50
2012,09,20,14,37,20.50
2012,09,20,14,38,20.50
2012,09,20,14,39,20.60
2012,09,20,14,40,20.60
2012,09,20,14,41,20.80
2012,09,20,14,42,20.90
2012,09,20,14,43,21.00
2012,09,20,14,44,21.30
2012,09,20,14,45,21.40
2012,09,20,14,46,21.60
2012,09,20,14,47,21.60
2012,09,20,14,48,21.60
2012,09,20,14,49,21.60
2012,09,20,14,50,21.60
2012,09,20,14,51,21.50
2012,09,20,14,52,21.40
2012,09,20,14,53,21.30
2012,09,20,14,54,21.30
2012,09,20,14,55,21.20
2012,09,20,14,56,21.10
2012,09,20,14,57,21.10
2012,09,20,14,58,21.00
2012,09,20,14,59,21.00
2012,09,20,15,00,20.90
2012,09,20,15,01,20.90
2012,09,20,15,02,20.90
2012,09,20,15,03,20.80
2012,09,20,15,04,20.70
2012,09,20,15,05,20.60
2012,09,20,15,06,20.60
2012,09,20,15,07,20.60
2012,09,20,15,08,20.60
2012,09,20,15,09,20.60
2012,09,20,15,10,20.60
2012,09,20,15,11,20.70
2012,09,20,15,12,20.60
2012,09,20,15,13,20.60
2012,09,20,15,14,20.50
2012,09,20,15,15,20.50
2012,09,20,15,16,20.40
2012,09,20,15,17,20.50
2012,09,20,15,18,20.50
2012,09,20,15,19,20.50
2012,09,20,15,20,20.50
2012,09,20,15,21,20.40
2012,09,20,15,22,20.30
2012,09,20,15,23,20.20
2012,09,20,15,24,20.30
2012,09,20,15,25,20.30
2012,09,20,15,26,20.40
2012,09,20,15,27,20.40
2012,09,20,15,28,20.40
2012,09,20,15,29,20.40
2012,09,20,15,30,20.30
2012,09,20,15,31,20.10
2012,09,20,15,32,19.90
2012,09,20,15,33,19.80
2012,09,20,15,34,19.70
2012,09,20,15,35,19.60
2012,09,20,15,36,19.50
2012,09,20,15,37,19.40
2012,09,20,15,38,19.40
2012,09,20,15,39,19.40
2012,09,20,15,40,19.40
2012,09,20,15,41,19.30
2012,09,20,15,42,19.30
2012,09,20,15,43,19.30
2012,09,20,15,44,19.40
2012,09,20,15,45,19.60
2012,09,20,15,46,19.80
2012,09,20,15,47,20.00
2012,09,20,15,48,20.20
2012,09,20,15,49,20.30
2012,09,20,15,50,20.40
2012,09,20,15,51,20.40
2012,09,20,15,52,20.50
2012,09,20,15,53,20.60
2012,09,20,15,54,20.70
2012,09,20,15,55,20.80
2012,09,20,15,56,20.90
2012,09,20,15,57,20.90
2012,09,20,15,58,21.00
2012,09,20,15,59,21.00
2012,09,20,16,00,21.00
2012,09,20,16,01,21.00
2012,09,20,16,02,21.10
2012,09,20,16,03,21.10
2012,09,20,16,04,21.20
2012,09,20,16,05,21.20
2012,09,20,16,06,21.20
2012,09,20,16,07,21.10
2012,09,20,16,08,21.00
2012,09,20,16,09,20.90
2012,09,20,16,10,20.80
2012,09,20,16,11,20.70
2012,09,20,16,12,20.70
2012,09,20,16,13,20.80
2012,09,20,16,14,20.80
2012,09,20,16,15,20.80
2012,09,20,16,16,20.80
2012,09,20,16,17,20.90
2012,09,20,16,18,21.00
2012,09,20,16,19,21.00
2012,09,20,16,20,21.10
2012,09,20,16,21,21.20
2012,09,20,16,22,21.20
2012,09,20,16,23,21.10
2012,09,20,16,24,21.10
2012,09,20,16,25,21.00
2012,09,20,16,26,21.00
2012,09,20,16,27,21.00
2012,09,20,16,28,21.00
2012,09,20,16,29,21.00
2012,09,20,16,30,20.90
2012,09,20,16,31,20.80
2012,09,20,16,32,20.70
2012,09,20,16,33,20.60
2012,09,20,16,34,20.60
2012,09,20,16,35,20.50
2012,09,20,16,36,20.50
2012,09,20,16,37,20.40
2012,09,20,16,38,20.40
2012,09,20,16,39,20.40
2012,09,20,16,40,20.50
2012,09,20,16,41,20.50
2012,09,20,16,42,20.60
2012,09,20,16,43,20.70
2012,09,20,16,44,20.70
2012,09,20,16,45,20.80
2012,09,20,16,46,20.80
2012,09,20,16,47,20.90
2012,09,20,16,48,21.00
2012,09,20,16,49,21.00
2012,09,20,16,50,21.00
2012,09,20,16,51,20.90
2012,09,20,16,52,20.80
2012,09,20,16,53,20.70
2012,09,20,16,54,20.70
2012,09,20,16,55,20.70
2012,09,20,16,56,20.70
2012,09,20,16,57,20.70
2012,09,20,16,58,20.80
2012,09,20,16,59,20.90
2012,09,20,17,00,20.90
2012,09,20,17,01,20.80
2012,09,20,17,02,20.80
2012,09,20,17,03,20.80
2012,09,20,17,04,20.70
2012,09,20,17,05,20.70
2012,09,20,17,06,20.70
2012,09,20,17,07,20.70
2012,09,20,17,08,20.60
2012,09,20,17,09,20.70
2012,09,20,17,10,20.80
2012,09,20,17,11,20.90
2012,09,20,17,12,21.00
2012,09,20,17,13,21.10
2012,09,20,17,14,21.10
2012,09,20,17,15,21.10
2012,09,20,17,16,21.10
2012,09,20,17,17,21.10
2012,09,20,17,18,21.00
2012,09,20,17,19,20.90
2012,09,20,17,20,20.70
2012,09,20,17,21,20.70
2012,09,20,17,22,20.70
2012,09,20,17,23,20.70
2012,09,20,17,24,20.60
2012,09,20,17,25,20.50
2012,09,20,17,26,20.50
2012,09,20,17,27,20.50
2012,09,20,17,28,20.60
2012,09,20,17,29,20.60
2012,09,20,17,30,20.70
2012,09,20,17,31,20.80
2012,09,20,17,32,20.80
2012,09,20,17,33,20.80
2012,09,20,17,34,20.70
2012,09,20,17,35,20.70
2012,09,20,17,36,20.60
2012,09,20,17,37,20.50
2012,09,20,17,38,20.40
2012,09,20,17,39,20.30
2012,09,20,17,40,20.20
2012,09,20,17,41,20.20
2012,09,20,17,42,20.10
2012,09,20,17,43,19.90
2012,09,20,17,44,19.70
2012,09,20,17,45,19.60
2012,09,20,17,46,19.40
2012,09,20,17,47,19.30
2012,09,20,17,48,19.10
2012,09,20,17,49,19.00
2012,09,20,17,50,18.90
2012,09,20,17,51,18.80
2012,09,20,17,52,18.60
2012,09,20,17,53,18.50
2012,09,20,17,54,18.40
2012,09,20,17,55,18.30
2012,09,20,17,56,18.20
2012,09,20,17,57,18.10
2012,09,20,17,58,18.00
2012,09,20,17,59,17.90
2012,09,20,18,00,17.90
2012,09,20,18,01,17.90
2012,09,20,18,02,17.90
2012,09,20,18,03,17.90
2012,09,20,18,04,18.00
2012,09,20,18,05,18.10
2012,09,20,18,06,18.10
2012,09,20,18,07,18.10
2012,09,20,18,08,18.10
2012,09,20,18,09,18.10
2012,09,20,18,10,18.10
2012,09,20,18,11,18.10
2012,09,20,18,12,18.10
2012,09,20,18,13,18.10
2012,09,20,18,14,18.10
2012,09,20,18,15,18.10
2012,09,20,18,16,18.10
2012,09,20,18,17,18.10
2012,09,20,18,18,18.00
2012,09,20,18,19,17.90
2012,09,20,18,20,17.90
2012,09,20,18,21,17.90
2012,09,20,18,22,17.90
2012,09,20,18,23,17.90
2012,09,20,18,24,17.90
2012,09,20,18,25,17.80
2012,09,20,18,26,17.80
2012,09,20,18,27,17.80
2012,09,20,18,28,17.70
2012,09,20,18,29,17.70
2012,09,20,18,30,17.70
2012,09,20,18,31,17.60
2012,09,20,18,32,17.60
2012,09,20,18,33,17.50
2012,09,20,18,34,17.50
2012,09,20,18,35,17.50
2012,09,20,18,36,17.40
2012,09,20,18,37,17.40
2012,09,20,18,38,17.40
2012,09,20,18,39,17.40
2012,09,20,18,40,17.40
2012,09,20,18,41,17.40
2012,09,20,18,42,17.30
2012,09,20,18,43,17.30
2012,09,20,18,44,17.30
2012,09,20,18,45,17.30
2012,09,20,18,46,17.30
2012,09,20,18,47,17.30
2012,09,20,18,48,17.30
2012,09,20,18,49,17.30
2012,09,20,18,50,17.30
2012,09,20,18,51,17.30
2012,09,20,18,52,17.20
2012,09,20,18,53,17.20
2012,09,20,18,54,17.20
2012,09,20,18,55,17.10
2012,09,20,18,56,17.10
2012,09,20,18,57,17.10
2012,09,20,18,58,17.10
2012,09,20,18,59,17.00
2012,09,20,19,00,17.00
2012,09,20,19,01,17.00
2012,09,20,19,02,17.00
2012,09,20,19,03,17.00
2012,09,20,19,04,17.00
2012,09,20,19,05,17.00
2012,09,20,19,06,17.00
2012,09,20,19,07,16.90
2012,09,20,19,08,16.90
2012,09,20,19,09,16.90
2012,09,20,19,10,16.90
2012,09,20,19,11,16.90
2012,09,20,19,12,16.90
2012,09,20,19,13,16.80
2012,09,20,19,14,16.80
2012,09,20,19,15,16.80
2012,09,20,19,16,16.80
2012,09,20,19,17,16.70
2012,09,20,19,18,16.70
2012,09,20,19,19,16.70
2012,09,20,19,20,16.70
2012,09,20,19,21,16.70
2012,09,20,19,22,16.70
2012,09,20,19,23,16.70
2012,09,20,19,24,16.60
2012,09,20,19,25,16.60
2012,09,20,19,26,16.60
2012,09,20,19,27,16.50
2012,09,20,19,28,16.40
2012,09,20,19,29,16.40
2012,09,20,19,30,16.40
2012,09,20,19,31,16.40
2012,09,20,19,32,16.40
2012,09,20,19,33,16.40
2012,09,20,19,34,16.40
2012,09,20,19,35,16.40
2012,09,20,19,36,16.40
2012,09,20,19,37,16.30
2012,09,20,19,38,16.30
2012,09,20,19,39,16.30
2012,09,20,19,40,16.30
2012,09,20,19,41,16.30
2012,09,20,19,42,16.30
2012,09,20,19,43,16.30
2012,09,20,19,44,16.30
2012,09,20,19,45,16.30
2012,09,20,19,46,16.20
2012,09,20,19,47,16.20
2012,09,20,19,48,16.20
2012,09,20,19,49,16.20
2012,09,20,19,50,16.10
2012,09,20,19,51,16.10
2012,09,20,19,52,16.10
2012,09,20,19,53,16.10
2012,09,20,19,54,16.10
2012,09,20,19,55,16.10
2012,09,20,19,56,16.00
2012,09,20,19,57,15.90
2012,09,20,19,58,15.90
2012,09,20,19,59,15.90
2012,09,20,20,00,15.90
2012,09,20,20,01,15.80
2012,09,20,20,02,15.80
2012,09,20,20,03,15.80
2012,09,20,20,04,15.80
2012,09,20,20,05,15.80
2012,09,20,20,06,15.80
2012,09,20,20,07,15.80
2012,09,20,20,08,15.80
2012,09,20,20,09,15.80
2012,09,20,20,10,15.80
2012,09,20,20,11,15.80
2012,09,20,20,12,15.80
2012,09,20,20,13,15.80
2012,09,20,20,14,15.70
2012,09,20,20,15,15.70
2012,09,20,20,16,15.70
2012,09,20,20,17,15.70
2012,09,20,20,18,15.70
2012,09,20,20,19,15.70
2012,09,20,20,20,15.70
2012,09,20,20,21,15.70
2012,09,20,20,22,15.70
2012,09,20,20,23,15.70
2012,09,20,20,24,15.70
2012,09,20,20,25,15.70
2012,09,20,20,26,15.70
2012,09,20,20,27,15.70
